PICOSAT 5 
1 26093U 00004L   03091.17111002  .00002199  00000-0  67817-3 0  5696
2 26093 100.1860 159.8893 0034282 151.7707 208.5373 14.42368716164571
PICOSAT 6 
1 26094U 00004M   03090.60558385  .00000482  00000-0  17631-3 0  5482
2 26094 100.1966 155.0900 0036176 163.1104 197.1292 14.38396138163754
SNAP 1 
1 26386U 00033C   03091.55226264  .00001132  00000-0  22672-3 0  8691
2 26386  98.2604  51.3501 0013282  84.4742 275.7979 14.63662387147077
CHAMP 
1 26405U 00039B   03090.83178924  .00012957  00000-0  18783-3 0  8907
2 26405  87.2521 134.4437 0005725  94.2330 265.9588 15.55682432153148
PICOSAT 9 
1 26930U 01043B   03090.96240001  .00000048  00000-0  51002-4 0  4463
2 26930  67.0016 144.4902 0001915 259.0042 101.0849 14.29760412 78301
PROBA 1 
1 26958U 01049B   03091.49004992  .00001190  00000-0  12848-3 0  7067
2 26958  97.8480 170.0205 0083916 306.4836  52.8688 14.87825835 78193
SAUDISAT 1A 
1 26545U 00057A   03090.92633018  .00001759  00000-0  25157-3 0  4358
2 26545  64.5561 264.8005 0048850 232.3620 127.3077 14.79085995135349
UNISAT 
1 26547U 00057C   03090.89037835  .00002439  00000-0  33261-3 0  4532
2 26547  64.5558 266.9767 0056258 233.6872 125.9082 14.79914598135305
SAUDISAT 1B 
1 26549U 00057E   03090.99219967  .00000924  00000-0  14447-3 0  7246
2 26549  64.5519 268.9245 0053363 231.9323 127.6963 14.78014043135260
MOZHAYETS 
1 27560U 02054B   03091.17851814  .00000500  00000-0  12755-3 0  1359
2 27560  98.2321 338.9131 0044614  51.9158 308.6050 14.54148622 18001
SAUDISAT 1C 
1 27607U 02058C   03091.41488103  .00000978  00000-0  18314-3 0   893
2 27607  64.5501  70.8971 0036238  91.8810 268.6462 14.69992419 14953
UNISAT 2 
1 27608U 02058D   03091.05972285  .00000768  00000-0  13928-3 0   908
2 27608  64.5519  70.4294 0019158  74.7869 285.5354 14.73157364 14936
RADCAL 
1 22698U 93041A   03091.55710627  .00000148  00000-0  57965-4 0  5489
2 22698  89.5657 150.2890 0089447 162.5037 197.9272 14.22560718506712
STRV 1A 
1 23125U 94034B   03075.35345659  .00006776  00000-0  12813-2 0  2613
2 23125   6.8972 200.8819 7004906  99.5742 339.1307  2.64147621 76436
STRV 1B 
1 23126U 94034C   03091.26718289  .00007676  00000-0  16173-2 0  3462
2 23126   7.0268 177.9177 6957876 143.6509 293.8390  2.69994649 77415
HELIOS 1A 
1 23605U 95033A   03091.49763748  .00002975  00000-0  57831-3 0  2406
2 23605  98.0854  28.8997 0000941  38.7190 321.4080 14.63854102413276
REX 2 
1 23814U 96014A   03090.91892501  .00000159  00000-0  64919-4 0   174
2 23814  90.0623 239.8696 0021481 169.4312 190.7336 14.23573195366661
COSMOS 2346 
1 24953U 97052A   03090.83980323  .00000105  00000-0  86264-4 0  6920
2 24953  82.9208 214.2070 0041270  27.9469 332.3891 13.79382059277766
ARGOS 
1 25634U 99008A   03091.54198456  .00000037  00000-0  39638-4 0  9321
2 25634  98.9323  54.3705 0008711 289.4382  70.5851 14.18818725212335
HELIOS 1B 
1 25977U 99064A   03091.39513007  .00000504  00000-0  10573-3 0  1540
2 25977  98.1031  28.5304 0000915  49.8321 310.2830 14.63773484177715
MTI 
1 26102U 00014A   03090.72805650  .00003776  00000-0  25810-3 0  6507
2 26102  97.3741 343.1850 0023817  38.4268 321.8834 15.06490649166871
STRV 1C 
1 26610U 00072C   03085.77576167 -.00000285  00000-0  10000-3 0  2214
2 26610   6.8154 320.5881 7337810  19.7827 357.9788  2.03451709 17502
OFEQ 5 
1 27434U 02025A   03091.51517221  .00052390  00000-0  10377-2 0    19
2 27434 143.4508 278.4865 0190949 144.1545 217.2158 15.28095984 46639
CALSPHERE 1 
1 00900U 64063C   03091.45446290  .00000922  00000-0  10518-2 0  9894
2 00900  90.2137 279.4576 0028758 175.3211 184.8236 13.69151399908852
CALSPHERE 2 
1 00902U 64063E   03090.95147620  .00000075  00000-0  10000-3 0  5808
2 00902  90.2256 283.2549 0018373 358.4334   1.6761 13.52362120710657
LCS 1 
1 01361U 65034C   03090.57495403  .00000009  00000-0  10000-3 0  5773
2 01361  32.1383 147.4034 0013060  27.4233 332.6950  9.89265623370601
TEMPSAT 1 
1 01512U 65065E   03090.72334518  .00000058  00000-0  10000-3 0  6811
2 01512  89.9100 331.9024 0068654 291.3501  68.0317 13.33179531830237
CALSPHERE 4A
1 01520U 65065H   03090.94090283  .00000051  00000-0  84083-4 0  8405
2 01520  90.1289  45.1543 0067646 237.3780 122.0824 13.35072060831435
OPS 5712 P/L
1 02826U 67053A   03090.90573748  .00002789  00000-0  10070-2 0  9192
2 02826  69.9403 334.2961 0004670  24.7755 335.3547 14.34575642841291
OPS 5712 P/L
1 02874U 67053H   03091.54717138  .00000069  00000-0  89439-4 0  2110
2 02874  69.9679 266.6932 0005928  15.8670 344.2627 13.95730604823957
SURCAL 150B 
1 02909U 67053J   03091.39525167  .00002714  00000-0  84662-3 0  2426
2 02909  69.9509 209.5502 0006489 259.8333 100.2108 14.41867187845245
RIGIDSPHERE 
1 05398U 71067E   03090.66753376  .00000797  00000-0  29404-3 0  7556
2 05398  87.6282 151.7471 0068896  61.2306 299.5805 14.30060657660058
RADCAT 
1 06212U 72076A   03090.72203314  .00013441  00000-0  81860-3 0   425
2 06212  98.6083 110.3205 0005416 144.3520 215.8145 15.10537201777635
COSMOS 2265 
1 22875U 93067A   03091.05853970  .00164089  61774-5  59185-3 0  9099
2 22875  82.7992 262.5799 0200560 186.6372 173.2321 15.63754683485991
COSMOS 2332 
1 23853U 96025A   03090.93369754  .00064866 -98117-7  56507-3 0  4176
2 23853  82.9305 162.9234 0374996 208.3494 149.6888 15.13063341361781
CELESTIS-02 
1 25160U 98007D   03090.85247759  .00000015  00000-0  65788-4 0  4806
2 25160 108.0115 196.0528 0065871 236.7889 122.6914 14.20500488266149
CELESTIS-03 
1 26034U 99070C   03090.82938537  .00006474  00000-0  99557-3 0  6881
2 26034  98.2058   7.6592 0022334  55.9466 304.3858 14.73688383175136
